Regional Weather Roundup
Issued by NWS

Home | Current Version | Previous Version | Graphics & Text | Print | Product List | Glossary On
Versions: 1 2 3 4 5 6 7 8 9 10 11 12 13 14 15 16 17 18 19 20 21 22 23 24 25 26 27 28 29 30 31 32 33 34 35 36 37 38 39 40 41 42 43 44 45 46 47 48 49 50
485
ASUS43 KDTX 231410
RWRMI
MICHIGAN HOURLY REGIONAL WEATHER ROUNDUP
NATIONAL WEATHER SERVICE DETROIT/PONTIAC MI
ISSUED BY NATIONAL WEATHER SERVICE GRAND RAPIDS MI
1000 AM EDT SUN JUL 23 2017

NOTE: "FAIR" INDICATES FEW OR NO CLOUDS BELOW 12,000 FEET WITH NO
SIGNIFICANT WEATHER AND/OR OBSTRUCTION TO VISIBILITY.

MIZ047>049-052>055-059>063-066>070-074>076-081>083-231500-
SOUTHEAST LOWER MICHIGAN

CITY           SKY/WX    TMP DP  RH WIND       PRES   REMARKS
ADRIAN         PTSUNNY   72  63  73 CALM      29.82F
ALMA           CLOUDY    67  66  96 S5        29.81S FOG
ANN ARBOR      PTSUNNY   74  68  81 SW5       29.81R
BAD AXE        CLOUDY    69  65  85 CALM      29.81S
DETROIT CITY   CLOUDY    73  66  78 W3        29.79R
DETROIT        PTSUNNY   76  66  71 S5        29.80S
FLINT          CLOUDY    68  65  90 CALM      29.80F
GROSSE ILE     MOSUNNY   74  66  76 CALM      29.78F
HILLSDALE      CLOUDY    70  68  94 SW3       29.83R FOG
HOWELL         CLOUDY    70  66  87 SW6       29.80F

CITY           SKY/WX    TMP DP  RH WIND       PRES   REMARKS
JACKSON        LGT RAIN  70  66  87 VRB5      29.82S
LANSING        LGT RAIN  68  65  90 S8        29.79F FOG
MASON          CLOUDY    68  66  95 S5        29.80F FOG
MONROE         PTSUNNY   73  68  83 W6        29.79F
MT. CLEMENS    CLOUDY    70  68  94 CALM      29.79R
PONTIAC        PTSUNNY   73  66  78 W6        29.79R
PORT HOPE        N/A     71  67  87 CALM      29.79R
PORT HURON     PTSUNNY   73  64  73 CALM      29.79R
TRI CITIES     CLOUDY    69  68  96 CALM      29.81S FOG
YPSILANTI      MOSUNNY   77  67  71 SW3       29.81R
$$
MIZ043>046-050>051-056>058-064>065-071>073-077>080-231500-
SOUTHWEST LOWER MICHIGAN

CITY           SKY/WX    TMP DP  RH WIND       PRES   REMARKS
BATTLE CREEK   CLOUDY    72  68  87 SW5       29.82S
BENTON HARBOR  MOSUNNY   74  68  81 CALM      29.81S
BIG RAPIDS     PTSUNNY   72  64  77 CALM      29.79F
COLDWATER      CLOUDY    72  72 100 CALM      29.83R FOG
HOLLAND        MOSUNNY   73  69  87 S9        29.78S
GRAND RAPIDS   CLOUDY    71  70  96 SW6       29.79R
KALAMAZOO      MOSUNNY   72  67  84 SW8       29.81F
MARSHALL       CLOUDY    73  71  92 SW3       29.81S
MOUNT PLEASANT CLOUDY    70  66  88 CALM      29.80S
MUSKEGON       PTSUNNY   73  69  87 SW5       29.78F
STURGIS        PTSUNNY   71  69  93 S3        29.82R
$$
MIZ016>042-231500-
NORTHERN LOWER MICHIGAN

CITY           SKY/WX    TMP DP  RH WIND       PRES   REMARKS
ALPENA         CLOUDY    70  64  81 SE8       29.80S
BEAVER ISLAND  CLOUDY    72  66  83 SW7       29.75F
BELLAIRE       CLOUDY    71  64  78 CALM      29.77S
CADILLAC       CLOUDY    72  64  76 CALM      29.80F
CHARLEVOIX     CLOUDY    70  66  87 S3        29.79S
GAYLORD        CLOUDY    68  61  78 S8        29.80S
HOUGHTON LAKE  MOSUNNY   70  63  78 SW7       29.81S
MANISTEE       PTSUNNY   71  67  87 VRB5      29.77F
OSCODA         PTSUNNY   74  64  70 CALM      29.80R
PELLSTON       CLOUDY    68  65  90 VRB3      29.78S
TRAVERSE CITY  CLOUDY    72  65  78 VRB3      29.76S
LUDINGTON      MOSUNNY   71  67  88 SW6       29.78S
$$
MIZ007>008-015-231500-
EASTERN UPPER MICHIGAN

CITY           SKY/WX    TMP DP  RH WIND       PRES   REMARKS
KINROSS        HVY RAIN  58  57  97 NE13      29.82R FOG
MACKINAC ISLAN LGT RAIN  64  64 100 SE3       29.77S
NEWBERRY       CLOUDY    60  60  97 E9        29.76S
S. S. MARIE    RAIN      59  56  89 E9G20     29.80F FOG
$$
MIZ004>006-011>014-085-231500-
CENTRAL UPPER MICHIGAN

CITY           SKY/WX    TMP DP  RH WIND       PRES   REMARKS
MANISTIQUE     CLOUDY    67  64  89 CALM      29.75S
ESCANABA       CLOUDY    66  64  94 NW8       29.77S
MENOMINEE      CLOUDY    69  66  90 N5        29.78S
SAWYER-GWINN   CLOUDY    61  59  94 NW10      29.80S
$$
MIZ001>003-009>011-084-231500-
WESTERN UPPER MICHIGAN

CITY           SKY/WX    TMP DP  RH WIND       PRES   REMARKS
IRON MOUNTAIN  PTSUNNY   64  59  83 NW9       29.80S
HOUGHTON       CLOUDY    59  56  89 NE8       29.85R
COPPER HARBOR    N/A     53  51  93 N7        29.87R
IRONWOOD       FOG       55  55 100 NW5       29.89R VSB 1
$$

ABBREVIATIONS USED IN REMARKS
   TC - TEMPERATURE IN CELSIUS
  WCI - WIND CHILL INDEX
   HX - HEAT INDEX
  VSB - VISIBILITY





USA.gov is the U.S. government's official web portal to all federal, state and local government web resources and services.